Regional Weather Roundup
Issued by NWS Upton, NY

Home | Current Version | Previous Version | Text Only | Print | Product List | Glossary On
Versions: 1 2 3 4 5 6 7 8 9 10 11 12 13 14 15 16 17 18 19 20 21 22 23 24 25 26 27 28 29 30 31 32 33 34 35 36 37 38 39 40 41 42 43 44 45 46 47 48 49 50
687
ASUS41 KOKX 181508
RWROKX

REGIONAL WEATHER ROUNDUP
NATIONAL WEATHER SERVICE NEW YORK NY
1100 AM EDT WED OCT 18 2017

NOTE: "FAIR" INDICATES FEW OR NO CLOUDS BELOW 12,000 FEET WITH NO
SIGNIFICANT WEATHER AND/OR OBSTRUCTIONS TO VISIBILITY.

NYZ071-072-176-178-NJZ106-104-181600-
NEW YORK CITY METRO AREA

CITY           SKY/WX    TMP DP  RH WIND       PRES   REMARKS
Central Park   SUNNY     59  40  49 VRB5      30.34F
Bronx Bot Gard   N/A     61  39  44 N1        30.33S
LaGuardia APRT SUNNY     61  40  45 NW6       30.32S
Kennedy INTL   MOSUNNY   63  41  44 VRB5      30.33S
Breezy Point     N/A     57 N/A N/A W7          N/A
Newark/Liberty MOSUNNY   61  41  47 W5        30.32F
Teterboro      SUNNY     62  41  46 VRB3      30.31F
$$

NYZ177-179-078>081-181600-
LONG ISLAND NEW YORK

CITY           SKY/WX    TMP DP  RH WIND       PRES   REMARKS
Jones Beach      N/A     59 N/A N/A NW5         N/A
Matinecock PT    N/A     59 N/A N/A SW8         N/A
Farmingdale    SUNNY     62  43  49 NW5       30.32S
MacArthur/ISP  MOSUNNY   63  44  50 NW5       30.31F
Shirley        SUNNY     65  47  52 VRB3      30.31F
Mt Sinai Harb    N/A    N/A N/A N/A NW6         N/A
Westhampton    SUNNY     63  44  50 VRB5      30.32F
East Hampton   FAIR      61  49  65 W5        30.30S
Montauk          N/A     63  51  65 W7        30.32S
$$

NYZ052-065-067-181600-
HUDSON VALLEY

CITY           SKY/WX    TMP DP  RH WIND       PRES   REMARKS
White Plains   SUNNY     62  42  47 NW8       30.30F
Larchmont Harb   N/A     59 N/A N/A W3G9        N/A
Croton On Huds   N/A     61 N/A N/A S1          N/A
Newburgh       NOT AVBL
Montgomery     SUNNY     61  45  55 S7        30.30F
Poughkeepsie   SUNNY     58  41  53 VRB3      30.31S
Albany         MOSUNNY   57  40  52 SE3       30.30F
$$

NJZ001-105-106-008-010-013-015-019>022-104-181600-
NEW JERSEY

CITY           SKY/WX    TMP DP  RH WIND       PRES   REMARKS
Newark/Liberty MOSUNNY   61  41  47 W5        30.32F
Teterboro      SUNNY     62  41  46 VRB3      30.31F
Caldwell       SUNNY     59  44  57 CALM      30.33S
Somerville     SUNNY     61  45  55 S6        30.32F
Linden         FAIR      56  39  53 W5        30.34S
Perth Amboy      N/A     57 N/A N/A W7          N/A
Sussex         SUNNY     56  43  61 VRB3      30.33S
Andover        NOT AVBL
Trenton        SUNNY     60  43  53 NW5       30.34S
Millville      SUNNY     62  48  60 VRB6      30.36F
Atlantic City  SUNNY     62  42  47 W8        30.36S
Wrightstown    NOT AVBL
Toms River       N/A     62  44  51 W8        30.35S
Belmar         SUNNY     61  44  53 W8        30.34F
$$

PAZ047>061-062-071-181600-
EASTERN PENNSYLVANIA

CITY           SKY/WX    TMP DP  RH WIND       PRES   REMARKS
Philadelphia   SUNNY     61  42  49 SW7       30.36F
Allentown      SUNNY     60  43  53 W7        30.35S
Scranton       SUNNY     57  42  57 W7        30.35F
$$

CTZ002-004>006-009-010-012-RIZ004-006-007-MAZ004-011-015-181600-
SOUTHERN NEW ENGLAND
 IN CT

CITY           SKY/WX    TMP DP  RH WIND       PRES   REMARKS
Bradley INTL   MOSUNNY   61  43  51 SE3       30.29S
Hartford       SUNNY     62  44  51 CALM      30.30S
Danbury        SUNNY     62  42  47 W6        30.32S
Wtrbury/Oxford SUNNY     59  42  53 NW6       30.32R
Norwalk Harbor   N/A     57 N/A N/A SW5         N/A
Bridgeport     SUNNY     62  41  46 CALM      30.30F
Meriden        SUNNY     61  43  51 SE3       30.30F
New Haven      SUNNY     61  41  47 CALM      30.30F
Chester        FAIR      66  43  42 CALM      30.30F
Groton         SUNNY     62  43  49 SW6       30.30S
Wilimantic     SUNNY     63  43  48 W6        30.29F

 IN RI

CITY           SKY/WX    TMP DP  RH WIND       PRES   REMARKS
Providence     MOSUNNY   65  44  46 W10       30.29S
Block Island   SUNNY     63  52  67 W14       30.30F
Westerly       SUNNY     63  42  46 SW6       30.30F
 IN MA

CITY           SKY/WX    TMP DP  RH WIND       PRES   REMARKS
Boston         MOSUNNY   64  43  46 W13       30.26S
Worcester      SUNNY     58  39  49 W12       30.27R
Westfield      SUNNY     61  43  51 S6        30.28S
Provincetown   SUNNY     60  46  59 W13       30.27S
Nantucket      SUNNY     63  53  70 W14       30.28S
$$

ANZ330-335-338-340-345-350-353-355-181600-
COASTAL MARINE OBSERVATIONS


STATION/POSITION TIME  SKY/WX   TEMP    WIND        PRES    VSBY  WAVE
                                AIR SEA DIR/SP/G                  HT/PER
                 (UTC)          (F)     (DEG/KT/KT) (MB)    (MI)  (FT/S)
NY HARB ENTRANCE 1450            59 65  290/ 14/ 17 1026.1          2/11
20 S FIRE ISLAND 1350            59 63  280/ 14/ 17 1026.6          3/11
GREAT SOUTH BAY  1415            58 61  290/  4/  8   N/A
15 E BARNEGAT LI 1430               66                N/A           3/10
HUDSON CANYON    1350            61 65  280/ 12/ 16 1026.7          3/10
KINGS POINT      1448            59 65  350/  4/  5 1027.3
EXECUTION ROCKS  1430            63     260/  6/  8   N/A
WESTERN LI SOUND 1349            58     260/  6/ 10   N/A           1
CENTRAL LI SOUND NOT AVBL
EASTERN LI SOUND NOT AVBL
ROBBINS REEF     1448            57     280/  6/  9 1027.5
$$


>>>>>>>>>>>>>>>>>>>>>>>>>>>> KEY <<<<<<<<<<<<<<<<<<<<<<<<<<<
>                                                          <
>     SKY/WX - Sky Condition/Present Weather               <
>     TMP    - Temperature in Fahrenheit                   <
>     DP     - Dew Point in Fahrenheit                     <
>     RH     - Relative Humidity in Percent                <
>     WIND   - Direction (from) and Speed in MPH           <
>     PRES   - Mean Sea Level Pressure (inches of Hg)      <
>     WCI    - Wind Chill Index                            <
>     VSB    - VISIBILITY IN MILES                         <
>     HX     - HEAT INDEX                                  <
>     TC     - TEMPERATURE IN CELSIUS                      <
>     VRB    - VARIABLE WIND DIRECTION                     <
>                                                          <
>>>>>>>>>>>>>>>>>>>>>>>>>>>> KEY <<<<<<<<<<<<<<<<<<<<<<<<<<<




USA.gov is the U.S. government's official web portal to all federal, state and local government web resources and services.